AEZ2226 LIBF-LIML

Flight info

Callsign AEZ2226
Flight time 1h 6m
Altitude 34000
Route URIPI DCT NUKNI DCT LOMED/N0464F300 DCT RUXOL DCT KALIK
Aircraft B738/M-SDE2E3FGHIRWXY/LB1

Departure

Time 2026-05-04 09:38
Airport Foggia Gino Lisa Airport (LIBF)

Arrival

Time 2026-05-04 10:44
Airport Milano Linate Airport (LIML)
Time Latitude Longitude Altitude Speed Heading
2026-05-04 09:17 41.43521 15.54303 263 ft 0 kts 130°
2026-05-04 09:30 41.43529 15.54287 302 ft 2 kts 78°
2026-05-04 09:30 41.43523 15.54270 300 ft 2 kts 74°
2026-05-04 09:30 41.43520 15.54243 300 ft 2 kts 79°
2026-05-04 09:31 41.43514 15.54231 301 ft 2 kts
2026-05-04 09:31 41.43503 15.54232 302 ft 2 kts 353°
2026-05-04 09:31 41.43492 15.54234 300 ft 0 kts 352°
2026-05-04 09:34 41.43552 15.54215 300 ft 13 kts 332°
2026-05-04 09:34 41.43605 15.54074 301 ft 22 kts 287°
2026-05-04 09:34 41.43659 15.53851 300 ft 29 kts 289°
2026-05-04 09:34 41.43739 15.53635 300 ft 26 kts 319°
2026-05-04 09:35 41.43899 15.53473 300 ft 30 kts 323°
2026-05-04 09:35 41.43965 15.53290 300 ft 23 kts 255°
2026-05-04 09:35 41.43991 15.53099 301 ft 26 kts 328°
2026-05-04 09:35 41.44166 15.52996 300 ft 24 kts 339°
2026-05-04 09:37 41.44204 15.52977 301 ft 10 kts 153°
2026-05-04 09:37 41.43962 15.53119 301 ft 77 kts 156°
2026-05-04 09:38 41.43222 15.53553 302 ft 152 kts 156°
2026-05-04 09:38 41.42152 15.54188 838 ft 173 kts 155°
2026-05-04 09:38 41.41073 15.54859 1898 ft 168 kts 163°
2026-05-04 09:38 41.39928 15.54766 2698 ft 177 kts 208°
2026-05-04 09:39 41.39081 15.53433 3100 ft 206 kts 247°
2026-05-04 09:39 41.38729 15.51529 3614 ft 220 kts 269°
2026-05-04 09:39 41.39203 15.49551 4093 ft 238 kts 308°
2026-05-04 09:39 41.40577 15.48443 5042 ft 232 kts 352°
2026-05-04 09:40 41.42142 15.48666 6082 ft 228 kts 15°
2026-05-04 09:40 41.43696 15.49199 6674 ft 232 kts 14°
2026-05-04 09:40 41.45267 15.49712 6968 ft 234 kts 11°
2026-05-04 09:40 41.46877 15.49641 6985 ft 236 kts 342°
2026-05-04 09:41 41.48480 15.48690 7019 ft 269 kts 332°
2026-05-04 09:42 41.60452 15.39402 12769 ft 296 kts 330°
2026-05-04 09:43 41.62252 15.38017 13619 ft 300 kts 330°
2026-05-04 09:43 41.64075 15.36616 14400 ft 304 kts 330°
2026-05-04 09:43 41.65921 15.35198 15151 ft 308 kts 330°
2026-05-04 09:43 41.67788 15.33766 15931 ft 311 kts 330°
2026-05-04 09:44 41.69675 15.32317 16696 ft 314 kts 330°
2026-05-04 09:44 41.71564 15.30864 17276 ft 325 kts 330°
2026-05-04 09:44 41.73594 15.29303 17433 ft 347 kts 330°
2026-05-04 09:46 41.89681 15.15092 20138 ft 419 kts 307°
2026-05-04 09:46 41.91429 15.11942 20701 ft 422 kts 307°
2026-05-04 09:46 41.93177 15.08761 21213 ft 426 kts 307°
2026-05-04 09:47 41.94944 15.05552 21738 ft 429 kts 307°
2026-05-04 09:47 41.96706 15.02367 22261 ft 431 kts 307°
2026-05-04 09:49 42.09541 14.79372 25336 ft 445 kts 307°
2026-05-04 09:49 42.11402 14.76029 25711 ft 447 kts 307°
2026-05-04 09:49 42.13270 14.72669 26084 ft 448 kts 306°
2026-05-04 09:51 42.24584 14.52245 28345 ft 454 kts 306°
2026-05-04 09:51 42.26466 14.48839 28953 ft 450 kts 305°
2026-05-04 09:51 42.28325 14.45467 29472 ft 448 kts 305°
2026-05-04 09:51 42.30182 14.42092 29942 ft 446 kts 305°
2026-05-04 09:52 42.32028 14.38732 30396 ft 445 kts 305°
2026-05-04 09:52 42.33358 14.36310 30690 ft 444 kts 305°
2026-05-04 09:52 42.34933 14.33437 31006 ft 440 kts 305°
2026-05-04 09:52 42.36504 14.30577 31324 ft 435 kts 305°
2026-05-04 09:53 42.38297 14.27304 31668 ft 431 kts 305°
2026-05-04 09:53 42.40074 14.24063 31998 ft 427 kts 304°
2026-05-04 09:53 42.41250 14.21915 32191 ft 425 kts 305°
2026-05-04 09:53 42.43552 14.17706 32573 ft 422 kts 305°
2026-05-04 09:54 42.44708 14.15590 32753 ft 421 kts 305°
2026-05-04 09:54 42.46443 14.12410 33029 ft 419 kts 305°
2026-05-04 09:54 42.48172 14.09239 33286 ft 417 kts 305°
2026-05-04 09:54 42.50462 14.05039 33458 ft 420 kts 305°
2026-05-04 09:55 42.52201 14.01837 33495 ft 424 kts 305°
2026-05-04 09:55 42.55145 13.96408 33549 ft 429 kts 305°
2026-05-04 09:56 42.58679 13.89889 33609 ft 434 kts 305°
2026-05-04 09:56 42.62282 13.83257 33745 ft 437 kts 304°
2026-05-04 09:56 42.64088 13.79930 33923 ft 436 kts 304°
2026-05-04 09:57 42.65885 13.76611 34137 ft 434 kts 304°
2026-05-04 09:57 42.69479 13.69995 34140 ft 435 kts 304°
2026-05-04 09:58 42.73072 13.63375 34140 ft 435 kts 305°
2026-05-04 09:58 42.76356 13.57333 34160 ft 436 kts 305°
2026-05-04 10:00 42.90406 13.31628 34152 ft 440 kts 305°
2026-05-04 10:04 43.15063 12.83563 34164 ft 438 kts 302°
2026-05-04 10:04 43.18469 12.76651 34171 ft 438 kts 302°
2026-05-04 10:05 43.21871 12.69735 34174 ft 437 kts 302°
2026-05-04 10:05 43.25262 12.62819 34176 ft 436 kts 302°
2026-05-04 10:06 43.28649 12.55897 34177 ft 436 kts 302°
2026-05-04 10:06 43.32021 12.48990 34182 ft 435 kts 302°
2026-05-04 10:08 43.43736 12.24861 34174 ft 433 kts 301°
2026-05-04 10:08 43.47063 12.17972 34171 ft 432 kts 301°
2026-05-04 10:09 43.50387 12.11074 34159 ft 432 kts 301°
2026-05-04 10:09 43.53707 12.04174 34165 ft 433 kts 301°
2026-05-04 10:10 43.57034 11.97240 34159 ft 434 kts 301°
2026-05-04 10:10 43.60361 11.90288 34160 ft 434 kts 301°
2026-05-04 10:11 43.63669 11.83357 34162 ft 436 kts 301°
2026-05-04 10:11 43.67010 11.76339 34157 ft 437 kts 301°
2026-05-04 10:12 43.70327 11.69358 34151 ft 437 kts 301°
2026-05-04 10:12 43.73663 11.62320 34152 ft 438 kts 301°
2026-05-04 10:13 43.76999 11.55261 34155 ft 438 kts 301°
2026-05-04 10:13 43.80331 11.48195 34156 ft 438 kts 301°
2026-05-04 10:14 43.83663 11.41112 34161 ft 439 kts 301°
2026-05-04 10:16 43.96987 11.12613 34168 ft 442 kts 301°
2026-05-04 10:16 44.00322 11.05436 34167 ft 441 kts 301°
2026-05-04 10:17 44.03326 10.98043 34161 ft 438 kts 286°
2026-05-04 10:19 44.10165 10.65587 34198 ft 438 kts 285°
2026-05-04 10:19 44.12181 10.57574 34096 ft 443 kts 298°
2026-05-04 10:20 44.15602 10.50406 34095 ft 444 kts 302°
2026-05-04 10:20 44.19112 10.43309 34056 ft 445 kts 302°
2026-05-04 10:21 44.22576 10.36147 34035 ft 445 kts 301°
2026-05-04 10:21 44.25981 10.28998 34014 ft 445 kts 301°
2026-05-04 10:22 44.29398 10.21779 33593 ft 448 kts 301°
2026-05-04 10:22 44.31106 10.18167 33200 ft 444 kts 301°
2026-05-04 10:22 44.32802 10.14578 32684 ft 440 kts 301°
2026-05-04 10:23 44.34477 10.11032 32167 ft 435 kts 301°
2026-05-04 10:23 44.36130 10.07532 31648 ft 430 kts 301°
2026-05-04 10:25 44.47484 9.83364 27981 ft 420 kts 302°
2026-05-04 10:25 44.49121 9.80041 27465 ft 419 kts 302°
2026-05-04 10:25 44.50821 9.76671 26950 ft 417 kts 303°
2026-05-04 10:25 44.52471 9.73414 26456 ft 415 kts 303°
2026-05-04 10:26 44.54131 9.70124 25958 ft 412 kts 302°
2026-05-04 10:26 44.55772 9.66850 25469 ft 409 kts 302°
2026-05-04 10:26 44.57398 9.63593 24997 ft 406 kts 302°
2026-05-04 10:26 44.59011 9.60349 24524 ft 403 kts 302°
2026-05-04 10:27 44.60608 9.57132 24058 ft 401 kts 303°
2026-05-04 10:27 44.62199 9.53929 23580 ft 398 kts 302°
2026-05-04 10:27 44.63773 9.50753 23043 ft 395 kts 302°
2026-05-04 10:27 44.65335 9.47596 22504 ft 392 kts 302°
2026-05-04 10:28 44.66886 9.44455 21998 ft 390 kts 302°
2026-05-04 10:28 44.68424 9.41334 21475 ft 388 kts 302°
2026-05-04 10:28 44.70052 9.38312 20945 ft 389 kts 313°
2026-05-04 10:28 44.72263 9.36119 20459 ft 393 kts 333°
2026-05-04 10:29 44.74870 9.35041 19962 ft 393 kts 353°
2026-05-04 10:29 44.77580 9.35375 19488 ft 393 kts 17°
2026-05-04 10:29 44.80016 9.37064 19032 ft 390 kts 37°
2026-05-04 10:29 44.81920 9.39733 18564 ft 386 kts 56°
2026-05-04 10:30 44.83172 9.43029 18053 ft 380 kts 73°
2026-05-04 10:30 44.83699 9.46649 17534 ft 375 kts 85°
2026-05-04 10:30 44.84367 9.50197 16973 ft 379 kts 65°
2026-05-04 10:30 44.85705 9.53384 16506 ft 377 kts 60°
2026-05-04 10:31 44.87087 9.56511 15998 ft 376 kts 58°
2026-05-04 10:31 44.88801 9.59223 15486 ft 377 kts 38°
2026-05-04 10:32 44.99095 9.51736 12117 ft 353 kts 261°
2026-05-04 10:33 44.98766 9.48280 11484 ft 355 kts 261°
2026-05-04 10:33 44.98513 9.44821 10874 ft 356 kts 263°
2026-05-04 10:33 44.98351 9.41330 10244 ft 357 kts 269°
2026-05-04 10:33 44.98871 9.37896 9580 ft 362 kts 292°
2026-05-04 10:34 45.00245 9.34989 8992 ft 364 kts 313°
2026-05-04 10:34 45.02284 9.32892 8378 ft 362 kts 333°
2026-05-04 10:34 45.04655 9.31895 7697 ft 353 kts 353°
2026-05-04 10:34 45.07082 9.31624 7108 ft 345 kts 356°
2026-05-04 10:35 45.09451 9.31433 6489 ft 337 kts 356°
2026-05-04 10:35 45.11770 9.31221 5897 ft 331 kts 356°
2026-05-04 10:35 45.14056 9.30989 5254 ft 327 kts 355°
2026-05-04 10:35 45.16311 9.30741 4590 ft 324 kts 355°
2026-05-04 10:36 45.18560 9.30512 3954 ft 324 kts 355°
2026-05-04 10:36 45.20815 9.30298 3389 ft 325 kts 355°
2026-05-04 10:36 45.23015 9.30046 3114 ft 310 kts 356°
2026-05-04 10:36 45.25072 9.30489 3014 ft 291 kts 26°
2026-05-04 10:37 45.26517 9.32315 2936 ft 274 kts 61°
2026-05-04 10:37 45.26894 9.34783 3025 ft 249 kts 98°
2026-05-04 10:37 45.26181 9.36897 2999 ft 235 kts 140°
2026-05-04 10:37 45.24752 9.37779 2990 ft 222 kts 181°
2026-05-04 10:39 45.22363 9.29923 3005 ft 262 kts 347°
2026-05-04 10:39 45.24241 9.29503 2997 ft 276 kts 352°
2026-05-04 10:39 45.26129 9.29267 2996 ft 266 kts 355°
2026-05-04 10:40 45.27923 9.29079 2981 ft 250 kts 351°
2026-05-04 10:40 45.29582 9.28787 2989 ft 229 kts 355°
2026-05-04 10:40 45.31110 9.28683 3005 ft 214 kts 355°
2026-05-04 10:40 45.32531 9.28566 2998 ft 193 kts 355°
2026-05-04 10:41 45.33802 9.28453 3005 ft 177 kts 355°
2026-05-04 10:41 45.35025 9.28401 2880 ft 179 kts 358°
2026-05-04 10:41 45.35660 9.28389 2715 ft 183 kts 358°
2026-05-04 10:41 45.36927 9.28405 2456 ft 181 kts 359°
2026-05-04 10:42 45.38129 9.28372 2335 ft 163 kts 351°
2026-05-04 10:42 45.39229 9.28186 2117 ft 156 kts 352°
2026-05-04 10:42 45.40285 9.28109 1658 ft 163 kts 354°
2026-05-04 10:42 45.40744 9.28074 1481 ft 163 kts 354°
2026-05-04 10:43 45.41793 9.27989 1061 ft 168 kts 354°
2026-05-04 10:44 45.45775 9.27894 360 ft 3 kts 96°
2026-05-04 10:45 45.45775 9.27900 360 ft 0 kts 92°